Location: Ostrava
(49.8330°N, 18.2830°E)
Time: 07:31:29
(UTC+02:00)

Iridium 7 - Visible Passes

Search period start: 17 September 2014 00:00
Search period end: 27 September 2014 00:00
Orbit: 776 x 779 km, 86.4° (Epoch: 16 September)

Date Brightness Start Highest point End Pass type
(mag) Time Alt. Az. Time Alt. Az. Time Alt. Az.
17 Sep 7.2 01:50:05 29° NE 01:50:05 29° NE 01:53:09 10° NNE visible
17 Sep 6.8 03:30:34 29° NW 03:30:34 29° NW 03:33:51 10° NNW visible
18 Sep 7.8 01:16:51 19° NE 01:16:51 19° NE 01:19:05 10° NNE visible
18 Sep 6.7 02:57:20 36° NNW 02:57:20 36° NNW 03:00:34 10° N visible
19 Sep 8.2 00:43:36 12° NE 00:43:36 12° NE 00:44:26 10° NE visible
19 Sep 6.9 02:24:04 35° N 02:24:04 35° N 02:27:04 10° N visible
19 Sep 7.5 04:04:33 14° NW 04:04:33 14° NW 04:06:20 10° NNW visible
20 Sep 7.3 01:50:49 28° NNE 01:50:49 28° NNE 01:53:24 10° NNE visible
20 Sep 7.3 03:31:18 20° NW 03:31:18 20° NW 03:33:39 10° NNW visible
21 Sep 7.8 01:17:33 20° NE 01:17:33 20° NE 01:19:31 10° NNE visible
21 Sep 7.2 02:58:01 25° NNW 02:58:01 25° NNW 03:00:31 10° N visible
22 Sep 8.1 00:44:16 14° NE 00:44:16 14° NE 00:45:17 10° NNE visible
22 Sep 7.2 02:24:45 27° N 02:24:45 27° N 02:27:08 10° N visible
23 Sep 7.5 01:51:28 25° NNE 01:51:28 25° NNE 01:53:34 10° N visible
23 Sep 7.7 03:31:56 15° NW 03:31:56 15° NW 03:33:18 10° NNW visible
24 Sep 7.9 01:18:10 20° NNE 01:18:10 20° NNE 01:19:49 10° NNE visible
24 Sep 7.6 02:58:39 19° NNW 02:58:39 19° NNW 03:00:22 10° NNW visible
25 Sep 8.2 00:44:52 14° NNE 00:44:52 14° NNE 00:45:49 10° NNE visible
25 Sep 7.6 02:25:21 21° NNW 02:25:21 21° NNW 02:27:07 10° N visible
26 Sep 7.8 01:52:02 21° N 01:52:02 21° N 01:53:40 10° N visible
26 Sep 8.0 03:32:31 10° NW 03:32:31 10° NW 03:32:38 10° NW visible
